Temp
20 20 20 20 19 18 18 17 17 17 17 17 17 17 17 17 17 17 17 17 17 17 17 17 17 18 18 17 18 18 18 18 18 18 18 17 18 18 18 18 18 18
20 20 20 20 20 19 18 18 17 17 17 17 17 17 17 17 17 17 17 17 18 17 17 17 17 17 17 17 17 17 17 17 18 18 18 18 18 18 18 19 19 19
20 20 20 20 20 20 19 19 18 18 17 17 17 17 16 17 17 17 17 17 17 18 18 18 18 18 17 17 17 17 17 17 18 18 18 18 18 18 18 19 19 18
20 20 20 20 19 19 19 19 19 18 18 18 18 17 17 16 17 17 17 17 18 18 18 18 18 18 17 17 17 17 17 17 17 17 17 18 18 18 18 18 18 18
20 20 20 19 19 19 19 19 19 18 18 18 18 18 17 16 16 17 17 17 18 18 18 18 18 17 17 17 17 17 17 17 17 17 17 17 17 17 18 18 18 18
20 20 20 19 19 19 19 19 18 18 18 18 19 19 18 17 17 17 17 17 18 18 17 17 17 17 17 17 17 17 17 17 17 17 17 17 17 18 18 18 18 18
20 20 20 19 19 19 19 19 19 18 18 18 19 19 18 18 17 17 17 17 17 17 17 18 17 17 17 17 17 17 17 17 17 17 17 17 17 17 17 17 18 18
20 20 20 19 20 19 19 19 19 19 19 18 19 18 18 18 18 18 18 17 17 17 17 18 18 18 17 17 17 17 17 16 16 16 16 17 17 17 17 17 17 17
20 20 20 20 20 20 20 19 19 19 19 18 18 19 19 18 18 18 18 17 17 17 17 17 18 17 17 17 17 17 16 16 16 16 16 16 16 16 17 17 17 17
20 20 20 20 20 20 20 19 19 19 19 18 18 18 18 18 18 18 18 18 18 17 17 17 17 17 17 17 17 16 16 16 16 15 15 16 16 16 16 17 17 17
20 20 20 20 20 20 20 19 19 19 19 19 18 18 18 18 18 18 18 18 18 18 18 18 17 17 17 17 16 16 16 16 16 15 15 15 15 16 16 16 16 17
20 20 20 20 20 20 20 19 19 19 19 19 18 19 19 19 18 18 19 19 19 18 18 18 18 18 17 17 16 16 16 16 15 15 15 15 15 15 15 15 16 16
20 20 20 20 20 20 20 20 19 19 19 19 19 19 19 19 19 19 19 19 19 19 18 18 18 18 17 17 16 16 16 15 15 15 15 15 15 15 15 15 15 16
20 20 20 20 20 20 20 20 20 19 19 19 19 19 19 19 19 19 19 19 19 19 19 18 18 18 17 17 16 16 16 15 15 15 14 15 15 15 15 15 15 16
20 20 20 20 20 20 20 20 20 20 20 20 20 19 19 19 19 19 19 19 19 19 19 18 18 18 17 17 16 16 16 15 14 14 14 14 15 15 15 15 15 15
20 20 20 20 20 20 20 20 20 20 20 20 20 19 19 19 19 19 19 19 19 19 18 18 18 18 17 17 16 16 16 15 14 14 15 14 14 14 14 14 15 15
20 20 20 20 20 20 20 20 20 20 20 20 20 19 19 19 20 20 19 19 19 19 18 18 18 17 17 17 16 16 15 15 14 14 14 14 14 14 14 13 13 14
20 20 20 20 20 20 20 20 20 20 20 19 19 19 19 20 20 20 20 20 19 19 19 18 17 17 17 17 16 16 15 15 15 14 14 14 13 13 13 13 13 13
20 20 20 20 20 20 20 20 20 20 20 19 19 20 20 20 20 20 20 20 20 19 19 18 18 18 17 17 16 16 15 15 15 15 14 13 13 13 13 13 13 13
20 20 20 20 20 20 20 20 20 20 20 19 19 20 20 20 20 20 20 20 20 19 19 19 18 18 18 17 16 16 16 15 15 15 14 13 13 13 13 12 12 12
20 20 20 20 20 20 20 20 20 20 20 19 19 20 20 20 20 19 20 20 20 19 19 19 18 18 17 17 17 16 16 15 15 15 14 14 13 13 13 13 12 12
20 20 20 20 20 20 20 20 20 20 19 19 19 19 20 20 19 19 19 19 19 19 19 18 18 18 17 17 17 16 16 15 15 14 14 14 14 14 14 13 13 12
20 20 20 20 20 20 20 20 20 20 19 19 19 19 19 19 19 20 20 19 19 19 19 18 18 18 18 17 17 17 16 15 15 14 15 14 14 14 14 14 13 12
20 20 20 20 20 20 20 20 20 20 19 19 19 19 19 20 19 19 20 19 19 19 18 18 18 18 18 17 17 17 16 16 15 14 15 15 15 14 14 14 14 13
20 20 20 20 20 20 20 20 20 19 19 19 19 19 19 19 19 19 19 19 19 19 19 18 18 18 18 18 17 17 16 16 15 14 15 15 15 14 14 14 14 14
20 20 20 20 20 20 20 20 20 19 19 19 19 19 19 19 19 19 19 19 19 19 19 19 18 18 18 18 17 17 16 16 16 15 14 15 15 14 14 14 14 14
Height
823 823 822 821 820 819 818 817 816 815 815 813 812 811 809 808 806 805 805 804 803 802 801 801 800 800 799 799 798 798 797 797 797 797 797 797 797 796 796 797 797 797
822 822 821 820 819 818 817 816 815 814 813 813 812 810 808 807 805 804 803 803 802 801 801 800 799 798 798 797 797 797 796 795 794 794 794 794 794 794 793 793 793 793
821 820 820 819 818 817 816 815 814 813 812 811 810 809 807 806 804 803 802 801 801 800 799 799 798 797 797 796 795 795 794 793 792 792 792 791 790 790 788 788 789 788
820 819 819 818 817 816 816 814 813 812 811 810 809 808 806 805 804 802 801 800 799 799 798 798 797 796 795 794 794 793 792 791 790 789 788 788 787 786 785 785 785 784
819 818 817 817 816 815 815 813 812 811 810 809 808 806 805 804 803 801 800 800 798 798 797 796 796 795 794 793 792 791 790 789 788 786 785 784 784 784 782 781 781 780
817 817 816 815 815 814 813 812 811 810 809 808 807 806 804 803 802 801 800 799 798 797 796 795 794 793 792 791 790 789 788 787 786 784 783 781 780 780 779 778 777 776
816 815 814 814 813 813 812 810 810 808 807 807 806 804 803 802 801 800 799 798 797 796 795 794 793 792 791 790 789 787 786 784 783 782 781 779 777 776 775 774 773 772
815 814 813 813 812 811 811 809 809 808 806 806 804 803 802 801 799 798 797 796 795 794 793 792 791 790 789 788 787 786 784 783 781 780 778 776 775 772 771 770 769 767
813 813 812 812 811 810 809 809 808 807 806 805 803 802 801 799 798 796 795 794 794 793 792 791 790 789 788 787 786 785 783 781 780 778 776 774 772 769 767 766 764 762
812 812 811 810 810 809 808 808 807 806 805 804 802 801 799 798 796 795 793 792 792 791 790 790 789 787 787 786 785 783 781 779 778 776 774 771 769 766 763 761 760 758
811 811 810 809 809 808 807 807 806 805 804 803 801 800 798 796 795 793 792 790 790 789 789 788 787 786 785 784 783 781 779 777 776 774 771 768 765 762 759 756 755 753
809 809 809 808 807 806 806 805 804 803 802 801 800 798 796 795 793 791 790 789 788 787 787 786 785 784 783 782 781 779 777 775 774 772 769 765 761 757 754 751 749 747
808 808 807 806 806 805 804 803 803 802 800 799 798 796 795 793 791 790 788 787 786 785 785 784 783 782 781 780 779 777 775 773 771 769 766 762 758 754 750 747 744 742
806 806 805 805 804 803 802 802 801 800 798 797 796 794 793 791 789 788 786 785 784 783 782 782 781 780 779 778 777 775 774 771 769 766 762 758 754 750 747 744 740 738
804 804 803 803 802 801 800 800 799 798 796 795 794 792 791 789 788 786 784 783 782 780 779 779 779 778 777 776 775 774 772 769 767 763 760 756 751 747 743 740 736 733
803 802 802 801 800 799 799 798 797 796 794 793 791 790 789 787 786 785 783 781 780 778 777 776 776 776 775 774 773 772 770 768 765 761 757 753 749 744 740 736 732 729
801 801 800 799 798 798 797 796 795 793 792 791 789 788 787 786 784 783 781 780 778 776 775 774 774 774 773 772 771 770 769 767 764 760 756 752 748 743 738 734 729 724
799 799 798 798 797 796 795 794 793 791 790 789 788 787 785 784 783 781 780 779 777 775 774 772 772 771 771 770 769 768 767 765 762 759 755 751 747 743 738 733 728 722
798 797 797 796 795 795 794 792 791 790 788 787 786 785 784 783 781 780 778 777 775 774 772 771 770 769 769 768 767 766 765 763 761 758 755 751 746 742 738 733 728 723
796 796 795 795 794 793 792 791 789 788 787 786 785 783 782 781 780 778 777 776 774 773 771 769 768 767 767 766 765 764 763 761 759 757 753 750 746 742 738 733 728 724
794 794 794 793 792 791 790 789 788 787 786 785 783 782 781 779 778 777 775 774 773 771 769 768 766 765 765 764 763 762 761 759 757 755 752 749 745 742 738 734 730 726
792 792 792 791 791 790 789 788 787 785 784 783 782 781 780 778 776 775 774 772 771 770 768 766 764 763 763 762 761 760 759 757 755 753 751 747 744 741 738 735 732 728
790 790 789 789 789 788 787 786 785 784 783 782 781 780 778 777 775 774 772 771 769 768 766 764 763 762 761 760 759 758 757 755 753 751 749 746 744 741 738 735 731 727
788 788 788 787 787 786 785 785 784 783 782 781 780 778 777 776 774 772 771 769 767 766 765 763 761 760 759 758 757 756 755 753 751 749 747 745 743 740 737 734 731 727
785 785 785 785 785 784 784 783 782 781 781 779 778 777 776 775 773 771 769 768 766 764 763 761 760 758 757 757 756 755 754 752 750 748 745 743 741 738 736 733 730 727
783 783 783 783 783 782 782 781 781 780 779 778 777 776 775 774 772 770 768 766 764 763 761 759 758 757 756 755 754 753 752 751 749 747 744 742 740 737 734 732 729 726
Wind_Speed
8 8 10 12 12 11 10 8 8 9 10 10 11 12 12 12 12 12 11 11 10 10 10 10 10 10 9 10 11 13 14 15 16 17 16 19 21 22 23 24 24 24
7 8 10 11 12 13 13 11 9 9 9 9 9 10 11 11 11 11 11 11 11 10 9 9 9 10 9 9 10 11 13 15 16 16 16 18 21 24 26 26 25 26
8 9 10 10 11 13 14 15 14 12 11 9 9 9 9 10 10 10 11 10 10 10 10 11 11 11 10 10 10 10 11 14 16 16 16 18 20 23 26 26 26 29
8 9 10 10 11 12 13 14 15 15 13 12 12 11 9 9 9 10 9 9 10 12 14 15 13 12 12 11 11 11 11 13 15 16 18 19 20 22 25 26 27 29
9 9 10 10 10 11 13 14 14 15 14 13 14 14 11 9 9 9 9 10 12 15 16 16 14 13 13 13 13 14 14 14 15 16 18 20 20 20 22 23 25 27
9 10 10 10 10 11 13 14 14 13 13 13 14 14 12 10 8 8 9 11 13 15 15 15 15 15 15 16 16 17 17 17 17 18 19 22 22 22 22 22 24 25
10 10 10 9 9 10 12 13 13 12 12 13 13 13 13 12 10 9 10 11 12 13 14 14 15 16 17 17 17 19 20 20 19 18 20 23 23 24 25 24 25 26
10 10 10 9 9 9 11 11 12 12 12 13 14 14 14 14 13 12 12 11 10 11 12 14 16 16 17 17 18 19 20 19 19 18 20 22 22 24 26 25 25 27
10 10 10 10 9 10 11 12 12 13 13 13 14 14 14 15 14 13 12 11 11 11 12 14 15 15 16 17 18 19 19 19 20 20 21 22 23 25 25 26 27 27
11 10 10 10 11 11 12 12 13 13 14 14 14 14 15 14 13 13 12 12 12 13 13 14 15 15 16 18 18 18 19 20 20 20 21 24 27 27 27 27 27 26
11 10 10 11 11 12 13 13 14 14 15 14 14 15 15 15 13 12 12 12 13 14 15 17 17 17 18 18 18 18 19 19 21 21 22 26 30 32 31 30 27 27
12 10 10 11 12 13 13 14 14 14 14 14 14 15 16 16 15 13 12 12 13 14 16 18 19 19 19 18 18 19 20 19 21 23 24 25 29 31 30 29 28 29
12 11 10 11 12 13 14 14 13 13 13 14 14 15 16 16 16 16 14 14 14 15 17 18 19 20 18 17 19 20 20 22 24 26 26 26 28 29 28 27 27 29
12 12 11 12 13 13 14 14 13 14 14 14 14 15 16 16 16 17 17 17 18 19 19 17 17 18 17 17 19 19 20 23 25 26 26 26 28 29 28 28 27 27
12 13 13 13 13 13 14 14 14 15 15 15 14 15 16 16 16 16 18 19 19 20 19 17 16 16 15 16 17 18 20 21 22 24 26 25 28 31 30 29 28 28
13 13 13 12 12 13 13 13 14 15 15 15 15 15 16 15 15 16 17 18 19 18 18 17 16 14 13 15 15 16 19 20 20 24 25 25 28 31 30 29 29 28
13 13 12 12 12 13 12 13 14 15 15 15 15 15 15 15 15 17 17 18 18 17 17 16 14 11 12 15 14 14 18 20 21 22 22 24 27 28 28 28 28 26
13 12 12 12 12 12 12 13 15 15 15 14 14 14 15 15 16 16 17 17 17 17 17 15 13 11 13 14 14 15 17 20 22 20 19 22 24 25 27 29 29 27
14 12 12 12 12 12 12 14 15 15 15 14 14 14 15 15 16 15 15 15 16 17 17 16 14 13 14 14 14 16 18 20 21 20 19 20 20 22 26 28 28 29
15 14 13 13 12 11 12 14 15 15 14 13 13 14 15 16 16 14 13 14 15 16 17 17 17 16 14 13 14 16 19 20 19 19 19 20 20 21 25 26 27 27
17 15 14 12 11 11 13 14 15 15 14 13 13 13 15 16 16 14 13 13 14 15 17 17 17 16 13 13 14 16 18 19 18 18 19 19 20 21 23 25 25 24
16 14 13 11 11 11 12 13 14 14 13 12 12 13 14 15 14 13 13 14 14 15 16 16 16 14 11 11 13 15 18 18 17 17 19 19 19 20 21 22 22 21
14 12 11 11 10 11 12 12 13 12 12 11 11 12 13 14 14 15 15 15 15 15 15 15 16 13 9 9 11 13 16 18 17 18 19 19 19 20 21 21 22 22
13 12 11 10 10 11 12 12 12 12 10 10 11 12 13 14 15 16 17 16 15 15 14 14 15 12 8 8 10 12 15 17 17 18 20 20 21 22 21 21 21 22
13 12 12 11 11 11 12 12 12 10 9 9 10 11 13 15 16 17 17 16 15 15 14 12 13 12 9 8 10 12 14 16 17 17 19 21 22 23 23 22 22 23
13 13 12 12 11 11 12 11 10 9 8 9 10 10 12 15 15 16 16 15 14 14 13 10 10 11 10 10 11 13 14 16 17 16 17 19 21 22 22 23 24 23
Wind_Direction
327 326 325 325 323 325 325 323 322 318 316 316 314 313 311 312 315 315 316 316 314 314 311 310 308 304 300 293 288 285 281 275 272 270 259 250 251 250 250 250 249 249
322 322 323 324 322 324 326 325 324 319 316 315 314 315 312 310 313 313 314 315 314 314 316 317 319 319 315 306 300 294 287 283 278 273 265 255 251 250 251 253 253 252
318 320 320 321 319 320 323 323 323 323 322 322 321 319 315 312 312 312 313 313 312 317 324 329 331 331 327 320 313 303 291 288 284 278 271 265 261 260 258 256 254 252
316 318 315 317 321 322 322 319 316 316 318 323 330 326 318 314 313 313 312 310 314 321 327 331 331 330 328 323 318 309 298 292 286 280 276 272 268 264 263 260 255 253
312 315 312 316 323 324 322 319 314 310 309 315 325 328 323 315 311 312 310 309 316 321 324 327 326 325 324 322 317 312 306 298 291 285 280 276 271 265 263 260 255 252
308 312 311 313 321 325 326 326 321 312 307 308 315 323 325 318 310 308 308 309 313 316 317 319 320 319 319 319 318 316 312 306 300 295 288 283 278 271 266 262 258 255
302 307 310 311 316 324 330 333 330 320 311 307 306 312 319 318 314 309 308 308 308 310 312 314 315 318 319 321 321 321 318 313 308 302 295 291 287 282 275 268 263 258
295 302 307 307 308 319 328 331 333 328 318 310 306 307 309 311 312 311 309 308 304 304 310 314 315 318 321 321 322 323 323 322 318 312 305 299 294 289 283 275 269 263
291 297 301 299 300 309 316 320 323 325 322 317 312 310 307 306 306 305 306 307 305 307 312 316 317 318 320 320 319 321 323 323 321 317 313 309 301 295 288 280 273 266
289 293 295 293 293 298 304 309 311 314 317 317 315 312 310 309 306 302 304 308 311 315 318 319 318 317 318 316 315 318 319 319 319 316 313 312 307 302 295 285 275 268
286 289 291 289 287 292 298 301 304 308 311 314 314 312 310 311 310 307 309 311 312 317 320 320 321 321 318 313 310 316 318 316 318 315 311 310 308 304 300 292 281 273
282 286 289 288 286 291 296 300 304 308 311 313 312 311 310 310 310 309 311 312 311 312 313 315 319 321 317 312 312 318 319 317 318 314 308 304 302 299 296 292 284 277
278 284 288 289 288 293 298 302 307 310 313 313 311 311 310 308 308 306 304 305 303 303 305 306 309 314 315 315 317 321 321 319 318 313 308 305 302 298 295 291 286 279
277 284 289 290 291 295 299 303 307 311 313 311 310 309 308 308 309 305 301 299 298 299 302 302 302 307 315 319 318 321 323 321 319 315 310 308 306 304 300 295 289 281
276 284 290 294 296 299 303 305 306 309 310 309 308 308 309 312 312 309 306 305 305 303 301 299 297 302 315 322 318 320 325 324 321 318 315 312 311 310 307 301 295 285
277 285 292 297 301 305 307 307 307 308 307 306 308 311 315 316 315 314 314 313 312 308 301 296 293 297 315 324 318 318 326 327 323 321 319 317 317 318 316 313 305 291
276 285 293 297 302 306 310 312 313 310 306 305 310 316 320 319 318 318 318 318 317 312 304 296 291 296 317 325 320 320 327 329 326 324 321 320 323 325 324 324 322 309
276 285 295 299 301 303 310 318 320 315 310 309 313 320 322 320 319 320 320 324 326 321 311 299 289 298 318 324 322 324 327 328 330 330 326 324 328 332 332 334 338 337
277 284 295 301 300 301 310 321 323 319 316 315 316 320 321 318 317 318 322 328 330 329 322 307 294 300 316 321 322 324 324 324 330 336 334 329 333 338 341 343 344 346
276 282 294 301 301 305 315 322 322 318 317 319 319 319 319 315 312 313 320 326 330 332 330 319 307 305 313 319 321 321 320 319 325 336 337 335 339 342 343 348 351 349
275 282 291 298 303 310 318 321 320 317 317 320 320 319 318 315 310 309 315 321 327 330 331 328 319 313 314 320 320 316 316 317 320 331 338 338 340 345 347 351 355 352
278 284 288 293 302 309 313 316 317 317 319 320 320 322 323 319 313 312 314 316 320 325 328 329 326 321 317 321 322 318 317 318 318 324 334 338 339 348 353 352 352 350
280 283 283 287 296 301 303 309 315 316 317 320 324 326 327 323 316 313 312 312 315 320 324 328 328 325 317 315 320 321 320 321 319 318 325 331 335 343 349 348 350 354
277 278 277 280 287 292 295 301 310 314 314 319 325 327 327 325 321 316 312 310 311 316 322 327 326 320 310 305 313 320 321 322 321 318 319 323 328 333 338 341 347 353
271 270 269 272 278 285 288 295 306 310 310 316 323 325 327 329 327 324 320 316 314 317 323 331 329 318 305 299 305 313 317 319 320 318 317 321 326 328 329 334 342 349
263 263 265 268 272 279 284 292 302 304 303 314 319 319 323 328 329 328 326 322 322 324 328 338 339 326 313 305 306 310 310 312 314 314 315 320 326 328 327 329 336 343